Regional Weather Roundup
Issued by NWS

Home | Current Version | Previous Version | Graphics & Text | Print | Product List | Glossary Off
Versions: 1 2 3 4 5 6 7 8 9 10 11 12 13 14 15 16 17 18 19 20 21 22 23 24 25 26 27 28 29 30 31 32 33 34 35 36 37 38 39 40 41 42 43 44 45 46 47 48 49 50

820
ASUS43 KMKX 231221
RWRWI

WISCONSIN REGIONAL WEATHER ROUNDUP
NATIONAL WEATHER SERVICE MILWAUKEE/SULLIVAN WI
600 AM CST THU FEB 23 2017

NOTE: "FAIR" INDICATES FEW OR NO CLOUDS BELOW 12,000 FEET WITH NO
SIGNIFICANT WEATHER AND/OR OBSTRUCTIONS TO VISIBILITY.

WIZ001-002-006>008-014>016-023>028-231300-
NORTHWEST WISCONSIN

CITY           SKY/WX    TMP DP  RH WIND       PRES   REMARKS
SUPERIOR ARPT  CLEAR     26  23  91 NW6       29.94R WCI  19
6HR MIN TEMP:  26; 6HR MAX TEMP:  34;

ASHLAND        CLOUDY    31  27  85 NW5       29.89R WCI  26
6HR MIN TEMP:  31; 6HR MAX TEMP:  33; 6HR PCP:  0.01;

HAYWARD        CLOUDY    31  27  85 N6        29.87R WCI  25
6HR MIN TEMP:  31; 6HR MAX TEMP:  34; 6HR PCP: TRACE;

SIREN          MOCLDY    31  26  81 N9        29.89R WCI  22
6HR MIN TEMP:  31; 6HR MAX TEMP:  34;

CUMBERLAND     CLOUDY    32  28  86 N17       29.84S WCI  21
RICE LAKE      CLOUDY    32  29  89 N10G16    29.85S WCI  24
6HR MIN TEMP:  32; 6HR MAX TEMP:  37;

CHETEK         FLURRIES  33  31  92 N9        29.84R WCI  25
6HR MIN TEMP:  33; 6HR MAX TEMP:  37;

LADYSMITH      CLOUDY    34  31  90 N12       29.83R WCI  25
6HR MIN TEMP:  34; 6HR MAX TEMP:  36;

EAU CLAIRE     CLOUDY    36  30  79 N7        29.84R WCI  30
6HR MIN TEMP:  36; 6HR MAX TEMP:  41;

MENOMONIE      CLOUDY    36  31  83 N9        29.86R WCI  29
6HR MIN TEMP:  36; 6HR MAX TEMP:  40;

NEW RICHMOND   CLOUDY    32  28  83 N10       29.88R WCI  24
6HR MIN TEMP:  32; 6HR MAX TEMP:  36;

OSCEOLA        CLOUDY    32  28  83 N10G16    29.91R WCI  24
6HR MIN TEMP:  32; 6HR MAX TEMP:  36;

$$

WIZ003>005-009-010-017-018-231300-
NORTH CENTRAL WISCONSIN

CITY           SKY/WX    TMP DP  RH WIND       PRES   REMARKS
MANITOWISH WTR LGT SNOW  29  29 100 N6        29.79R WCI  23
6HR MIN TEMP:  29; 6HR MAX TEMP:  32;

ARBOR VITAE    LGT SNOW  32  30  94 N10         N/A  WCI  23
6HR MIN TEMP:  32; 6HR MAX TEMP:  37;

WOODRUFF       LGT SNOW  32  30  94 N10         N/A  WCI  23
6HR MIN TEMP:  32; 6HR MAX TEMP:  37;

RHINELANDER    LGT SNOW  31  30  96 MISG      29.77R FOG
6HR MIN TEMP:  32; 6HR MAX TEMP:  37; 6HR PCP: TRACE;

EAGLE RIVER    FLURRIES  29  28  94 N9        29.76R WCI  21
6HR MIN TEMP:  29; 6HR MAX TEMP:  33;

LAND O LAKES   CLOUDY    29  27  93 N9        29.79R WCI  20
6HR MIN TEMP:  29; 6HR MAX TEMP:  33;

PHILLIPS       CLOUDY    31  31  99 NW6       29.81R FOG     WCI  25
6HR MIN TEMP:  31; 6HR MAX TEMP:  33;

TOMAHAWK       CLOUDY    31  28  85 N7        29.77R WCI  25
6HR MIN TEMP:  31; 6HR MAX TEMP:  37;

MEDFORD        CLOUDY    32  28  85 N8G20     29.77R WCI  25
6HR MIN TEMP:  32; 6HR MAX TEMP:  39;

MERRILL        NOT AVBL
$$

WIZ029-030-035-036-043>047-231300-
CENTRAL WISCONSIN

CITY           SKY/WX    TMP DP  RH WIND       PRES   REMARKS
WAUSAU         CLOUDY    34  29  82 N9        29.74R WCI  27
6HR MIN TEMP:  33; 6HR MAX TEMP:  40;

MOSINEE        MOCLDY    34  32  93 N8        29.76R WCI  27
MARSHFIELD     CLEAR     33  29  85 NW7       29.78R WCI  27
6HR MIN TEMP:  33; 6HR MAX TEMP:  42;

STEVENS POINT  PTCLDY    33  30  89 N3        29.76R
6HR MIN TEMP:  30; 6HR MAX TEMP:  41;

WAUPACA        CLOUDY    41  33  75 NW5       29.78R
6HR MIN TEMP:  38; 6HR MAX TEMP:  45;

WAUTOMA        CLOUDY    40  35  83 NW9       29.77R WCI  34
6HR MIN TEMP:  35; 6HR MAX TEMP:  47;

WISC RAPIDS    PTCLDY    34  30  85 W5        29.80R WCI  30
6HR MIN TEMP:  34; 6HR MAX TEMP:  45;

CAMP DOUGLAS   CLOUDY    37  32  81 NW9       29.79R WCI  31
6HR MIN TEMP:  38; 6HR MAX TEMP:  47;

$$

WIZ011>013-019>022-031-037>040-048>050-231300-
NORTHEAST WISCONSIN

CITY           SKY/WX    TMP DP  RH WIND       PRES   REMARKS
ANTIGO         CLOUDY    32  29  91 N12       29.74R WCI  23
6HR MIN TEMP:  32; 6HR MAX TEMP:  40;

SHAWANO        MOCLDY    38  32  79 N3        29.76R
6HR MIN TEMP:  36; 6HR MAX TEMP:  41;

OCONTO         CLOUDY    36  31  82 N8        29.74R WCI  30
STURGEON BAY   CLOUDY    35  32  88 N9          N/A  WCI  28
6HR MIN TEMP:  35; 6HR MAX TEMP:  38;

GREEN BAY      CLOUDY    40  34  79 CALM      29.77R
6HR MIN TEMP:  37; 6HR MAX TEMP:  41;

MANITOWOC      CLOUDY    40  36  86 N6        29.73S
6HR MIN TEMP:  37; 6HR MAX TEMP:  41; 6HR PCP: TRACE;

APPLETON       CLOUDY    39  36  87 N7        29.72R WCI  34
CLINTONVILLE   MOCLDY    36  30  80 N6        29.76R WCI  31
OSHKOSH        CLOUDY    41  37  86 N12       29.73R
6HR MIN TEMP:  41; 6HR MAX TEMP:  47;

$$

WIZ032>034-041-042-053>061-231300-
SOUTHWEST WISCONSIN

CITY           SKY/WX    TMP DP  RH WIND       PRES   REMARKS
LA CROSSE      CLOUDY    41  32  70 N10       29.81S
6HR MIN TEMP:  41; 6HR MAX TEMP:  48;

SPARTA         CLOUDY    38  32  81 N9        29.82R WCI  31
6HR MIN TEMP:  37; 6HR MAX TEMP:  47;

VIROQUA        CLOUDY    37  33  85 N14       29.78S WCI  29
6HR MIN TEMP:  38; 6HR MAX TEMP:  46;

BOSCOBEL       CLOUDY    44  36  73 N9        29.77S
6HR MIN TEMP:  43; 6HR MAX TEMP:  51;

PRAIRIE DU CHI CLOUDY    42  34  73 NW3       29.79R
6HR MIN TEMP:  42; 6HR MAX TEMP:  47;

PLATTEVILLE    MOCLDY    40  40  98 NW7       29.78R
6HR MIN TEMP:  37; 6HR MAX TEMP:  47;

$$

WIZ056-057-062-063-064-067-068-231300-
SOUTH CENTRAL WISCONSIN

CITY           SKY/WX    TMP DP  RH WIND       PRES   REMARKS
REEDSBURG      CLOUDY    38  35  87 N10       29.76F WCI  32
6HR MIN TEMP:  40; 6HR MAX TEMP:  48;

BARABOO/DELLS  CLOUDY    40  34  80 NW9       29.76R WCI  34
6HR MIN TEMP:  40; 6HR MAX TEMP:  47;

LONE ROCK      MOCLDY    43  35  73 N13G24    29.76R
6HR MIN TEMP:  43; 6HR MAX TEMP:  49;

MINERAL POINT  CLEAR     43  37  81 NW8       29.75R
MADISON        CLOUDY    45  38  76 NW13      29.73R
6HR MIN TEMP:  44; 6HR MAX TEMP:  49;

MIDDLETON      CLOUDY    44  38  78 N16       29.75R
6HR MIN TEMP:  45; 6HR MAX TEMP:  51;

WATERTOWN      CLOUDY    44  41  88 NW9       29.71R
6HR MIN TEMP:  43; 6HR MAX TEMP:  51;

MONROE         CLEAR     43  37  81 W9        29.75R
JANESVILLE     CLEAR     43  41  93 W5        29.72S
$$

WIZ051-052-058>065-066-070>072-231300-
SOUTHEAST WISCONSIN

CITY           SKY/WX    TMP DP  RH WIND       PRES   REMARKS
MILWAUKEE      CLEAR     48  40  73 NW8       29.71R
6HR MIN TEMP:  48; 6HR MAX TEMP:  57;

WAUKESHA       PTCLDY    43  37  81 W12       29.72R
MILWAUKEE/TIMM CLOUDY    45  36  70 NW18      29.73R
RACINE         CLEAR     47  39  74 NW10      29.72R
6HR MIN TEMP:  47; 6HR MAX TEMP:  56;

KENOSHA        CLEAR     46  40  79 NW6       29.71R
6HR MIN TEMP:  46; 6HR MAX TEMP:  55;

FOND DU LAC    CLOUDY    42  37  82 N15       29.75R
6HR MIN TEMP:  43; 6HR MAX TEMP:  48;

SHEBOYGAN      CLOUDY    41  37  86 N10       29.72R
6HR MIN TEMP:  41; 6HR MAX TEMP:  53;

WEST BEND      CLOUDY    45  41  87 NW9       29.71R
JUNEAU         CLOUDY    43  38  82 NW8       29.74R
6HR MIN TEMP:  43; 6HR MAX TEMP:  49;

$$

LSZ147-162-231300-
LAKE SUPERIOR

STATION/POSITION TIME  TEMP    WIND        PRES    WAVE
                       AIR SEA DIR/SP/G            HT/PER
                 (UTC) (F)     (DEG/KT/KT) (MB)    (FT/S)
DEVILS ISLAND    1200   32     340/ 11/ 13 1012.4R
PORT WING        1200   33     330/  9/ 15 1012.9
SAXON HARBOR     1130   32      20/  4/  6 1010.8R
$$

LMZ867-665-643>646-231300-
LAKE MICHIGAN

STATION/POSITION TIME  TEMP    WIND        PRES    WAVE
                       AIR SEA DIR/SP/G            HT/PER
                 (UTC) (F)     (DEG/KT/KT) (MB)    (FT/S)
CHAMBERS ISLAND  1140   35     320/ 12/ 15 1005.8S
NORTHPORT PIER   1200   34     320/ 15/ 21 1006.4
SISTER BAY       1105   35     340/ 17/ 20   N/A
KEWAUNEE LAKESHO 1200   38     340/



USA.gov is the U.S. government's official web portal to all federal, state and local government web resources and services.